Retour au catalogue

STARLINK-11398

ActifCommunicationsVLEO
NORAD 61882·PAYLOAD·🇺🇸 United States

Lancé Nov 9, 2024 depuis Vandenberg Space Force Base

Loading…

Prochains Passages (prochaines 24 heures)

TLE

FraisSource: CelesTrak SupGP

Époque: Sep 14, 2026, 21:25 UTC

1 61882C 24204J   26257.89284722 -.00053065  00000+0 -43697-3 0  2570
2 61882  53.1565 143.5035 0001062  92.3369 205.4695 15.69743916    17

Suivez STARLINK-11398 en temps réel avec AllMySat

Download on the App Store